User: anonymous   Login
Location: Coffee Creek Observatory
(38.8077°N, 94.7179°W)
Time: 14:48:19
(UTC-05:00)
Language:

Lacrosse 4 Rocket - Orbit

View from above orbital plane
View from above orbital plane
View from above satellite
View from above satellite

Ground track
Ground track

The orbit data is extracted from the following two-line orbital elements,

1 26474U 00047B   15114.85560195  .00003017  00000-0  28320-3 0  9994
2 26474 067.9962 208.1828 0053664 106.1836 254.5221 14.94324567798147
Epoch (UTC): 24 April 2015 20:32:04
Eccentricity: 0.0053664
inclination: 67.9962°
perigee height: 547 km
apogee height: 622 km
right ascension of ascending node: 208.1828°
argument of perigee: 106.1836°
revolutions per day: 14.94324567
mean anomaly at epoch: 254.5221°
orbit number at epoch: 79814

The dashed part of the orbit path shows where the satellite is in the earth's shadow,  

DLR